Regional Weather Roundup
Issued by NWS Upton, NY

Current Version | Previous Version | Graphics & Text | Print | Product List | Glossary Off
Versions: 1 2 3 4 5 6 7 8 9 10 11 12 13 14 15 16 17 18 19 20 21 22 23 24 25 26 27 28 29 30 31 32 33 34 35 36 37 38 39 40 41 42 43 44 45 46 47 48 49 50

000
ASUS41 KOKX 272302
RWROKX

REGIONAL WEATHER ROUNDUP
NATIONAL WEATHER SERVICE NEW YORK NY
700 PM EDT WED JUL 27 2016

NOTE: "FAIR" INDICATES FEW OR NO CLOUDS BELOW 12,000 FEET WITH NO
SIGNIFICANT WEATHER AND/OR OBSTRUCTIONS TO VISIBILITY.

NYZ071-072-176-178-NJZ106-104-280000-
NEW YORK CITY METRO AREA

CITY           SKY/WX    TMP DP  RH WIND       PRES   REMARKS
Central Park   SUNNY     86  64  47 CALM      29.91S
LaGuardia APRT MOSUNNY   91  65  41 VRB7      29.87S HX  93
Kennedy INTL   MOSUNNY   81  67  62 S10       29.90S
Newark/Liberty MOSUNNY   88  66  48 S12       29.87S HX  90
Bronx Bot Gard   N/A     86  64  48 SE5       29.91R
Wall St Helipt CLEAR     86  66  51 CALM      29.89S
Teterboro      SUNNY     88  62  41 SW7       29.86F
$$

NYZ177-179-078>081-280000-
LONG ISLAND NEW YORK

CITY           SKY/WX    TMP DP  RH WIND       PRES   REMARKS
Farmingdale    SUNNY     83  65  54 S8        29.90S
MacArthur/ISP  SUNNY     81  66  60 SW10      29.90R
Shirley        SUNNY     81  66  60 S8        29.91S
Riverhead      NOT AVBL
Westhampton    SUNNY     80  67  64 S8        29.92F
Southhampton     N/A     79  72  78 S7        29.86F
Bridgehampton    N/A     79  70  73 W3        29.90S
East Hampton   FAIR      78  68  71 SW9       29.90S
Montauk          N/A     78  68  71 SW8       29.91S
$$

NYZ052-065-067-280000-
HUDSON VALLEY

CITY           SKY/WX    TMP DP  RH WIND       PRES   REMARKS
White Plains   MOSUNNY   86  63  45 S5        29.90S
Newburgh       SUNNY     86  63  45 W12       29.92S
Montgomery     SUNNY     87  61  41 W5        29.90S
Poughkeepsie   SUNNY     90  59  35 W8        29.87S
Albany         MOSUNNY   87  60  40 W7        29.88S
$$

NJZ001-105-106-008-010-013-015-019>022-104-280000-
NEW JERSEY

CITY           SKY/WX    TMP DP  RH WIND       PRES   REMARKS
Newark/Liberty MOSUNNY   88  66  48 S12       29.87S HX  90
Teterboro      SUNNY     88  62  41 SW7       29.86F
Caldwell       SUNNY     90  60  36 VRB3      29.89S
Morristown     MOSUNNY   90  57  33 S6        29.89S
Somerville     SUNNY     88  64  44 CALM      29.87F
Linden         FAIR      88  64  44 S8        29.90S
Sussex         SUNNY     87  61  41 N3        29.92S
Abdover          N/A     86  66  51 CALM      29.92S
Trenton        SUNNY     89  63  41 N3        29.88F HX  90
Millville      SUNNY     85  74  69 CALM      29.89F HX  92
Atlantic City  SUNNY     83  72  69 SE5       29.90S
Wrightstown    SUNNY     86  73  64 VRB3      29.86F HX  92
Toms River     SUNNY     83  74  74 SE7       29.90F
Belmar         SUNNY     83  70  64 SE5       29.91F
$$

PAZ047>061-062-071-280000-
EASTERN PENNSYLVANIA

CITY           SKY/WX    TMP DP  RH WIND       PRES   REMARKS
Philadelphia   MOSUNNY   92  61  35 SW9       29.88F HX  92
Allentown      SUNNY     88  55  32 W6        29.90F
Scranton       SUNNY     87  57  35 CALM      29.93S
$$

CTZ002-004>006-009-010-012-RIZ004-006-007-MAZ004-011-015-280000-
SOUTHERN NEW ENGLAND
 IN CT

CITY           SKY/WX    TMP DP  RH WIND       PRES   REMARKS
Bradley INTL   MOSUNNY   91  56  30 NW7       29.87S
Hartford       MOSUNNY   94  56  27 W6        29.85S HX  92
Danbury        SUNNY     87  59  38 N7        29.91S
Wtrbury/Oxford SUNNY     84  57  39 CALM      29.94S
Bridgeport     SUNNY     87  60  40 S7        29.88S
Meriden        SUNNY     90  59  35 VRB3      29.87S
New Haven      SUNNY     84  64  50 S8        29.88S
Chester        FAIR      82  63  51 S7        29.90S
Groton         SUNNY     78  65  63 SW9       29.88F
Wilimantic     NOT AVBL

 IN RI

CITY           SKY/WX    TMP DP  RH WIND       PRES   REMARKS
Providence     MOSUNNY   84  62  47 SW13      29.88R
Block Island   SUNNY     77  68  73 SW14      29.90F
Westerly       SUNNY     82  58  43 SW10G18   29.90S
 IN MA

CITY           SKY/WX    TMP DP  RH WIND       PRES   REMARKS
Boston         MOSUNNY   79  65  62 E15       29.86S
Worchester     SUNNY     86  53  32 W7        29.91S
Westfield      SUNNY     90  55  30 NW7       29.87S
Provincetown   SUNNY     80  67  64 S10       29.89S
Nantucket      CLEAR     74  66  76 S6        29.91S
$$

ANZ330-335-338-340-345-350-353-355-280000-
COASTAL MARINE OBSERVATIONS


STATION/POSITION TIME  SKY/WX   TEMP    WIND        PRES    VSBY  WAVE
                                AIR SEA DIR/SP/G                  HT/PER
                 (UTC)          (F)     (DEG/KT/KT) (MB)    (MI)  (FT/S)
NY HARB ENTRANCE 2150            79 77  180/ 10/ 12 1012.1          1/ 9
20S FIRE ISLAND  2150            77 77  170/  8/ 10 1012.2          2/ 6
GREAT SOUTH BAY  2200            79 82  200/  8/ 12   N/A
23 SSW MONTAUK P 2150            76 72  200/  8/ 10 1013.3          2/ 6
15 E BARNEGAT LI 2222               78                N/A           1/ 6
HUDSON CANYON    2150            79 80              1013.2          2/ 6
KINGS POINT      2200               74                N/A
EXECUTION ROCKS  2200            84     190/  8/ 10   N/A
CENTRAL LI SOUND 2200            81 77  180/ 10/ 12   N/A           0
EASTERN LI SOUND 2200            72 69  180/  8/ 10   N/A
ROBBINS REEF     2212            81     170/ 15/ 16 1011.2
$$


>>>>>>>>>>>>>>>>>>>>>>>>>>>> KEY <<<<<<<<<<<<<<<<<<<<<<<<<<<
>                                                          <
>     SKY/WX - Sky Condition/Present Weather               <
>     TMP    - Temperature in Fahrenheit                   <
>     DP     - Dew Point in Fahrenheit                     <
>     RH     - Relative Humidity in Percent                <
>     WIND   - Direction (from) and Speed in MPH           <
>     PRES   - Mean Sea Level Pressure (inches of Hg)      <
>     WCI    - Wind Chill Index                            <
>     VSB    - VISIBILITY IN MILES                         <
>     HX     - HEAT INDEX                                  <
>     TC     - TEMPERATURE IN CELSIUS                      <
>     VRB    - VARIABLE WIND DIRECTION                     <
>                                                          <
>>>>>>>>>>>>>>>>>>>>>>>>>>>> KEY <<<<<<<<<<<<<<<<<<<<<<<<<<<



USA.gov is the U.S. government's official web portal to all federal, state and local government web resources and services.